Regional Weather Roundup
Issued by NWS

Home | Current Version | Previous Version | Text Only | Print | Product List | Glossary Off
Versions: 1 2 3 4 5 6 7 8 9 10 11 12 13 14 15 16 17 18 19 20 21 22 23 24 25 26 27 28 29 30 31 32 33 34 35 36 37 38 39 40 41 42 43 44 45 46 47 48 49 50

000
ASUS45 KCYS 021510
RWRWY

WYOMING REGIONAL WEATHER ROUNDUP
NATIONAL WEATHER SERVICE CHEYENNE WY
900 AM MDT MON MAY 02 2016

NOTE:  "FAIR" INDICATES FEW OR NO CLOUDS BELOW 12,000 FEET
WITH NO SIGNIFICANT WEATHER AND/OR OBSTRUCTIONS TO VISIBILITY.

WYZ001-021600-
YELLOWSTONE NATIONAL PARK

CITY           SKY/WX    TMP DP  RH WIND       PRES   REMARKS
LK YELLOWSTONE   N/A     30  21  69 E3        30.32S
W YELLOWSTONE  NOT AVBL

$$
WYZ002>013-054>058-071-098>099-021600-
NORTHERN WYOMING

CITY           SKY/WX    TMP DP  RH WIND       PRES   REMARKS
JACKSON        SUNNY     36  23  60 CALM      30.31S
CODY           FAIR      48  27  43 SW5       30.23R
GREYBULL       FAIR      47  31  53 SE3       30.24S
WORLAND        FAIR      48  32  53 S3        30.23F
SHERIDAN       FAIR      52  35  52 CALM      30.18S
BUFFALO          N/A    N/A N/A N/A MISG      30.19S
GILLETTE       FAIR      50  34  54 W12       30.16S
HULETT         FAIR      48  32  53 SW9       30.18S
NEWCASTLE      FAIR      45  28  53 CALM      30.19F

$$
WYZ014>020-022>026-101>103-021600-
CENTRAL WYOMING

CITY           SKY/WX    TMP DP  RH WIND       PRES   REMARKS
BIG PINEY      FAIR      34  19  54 E3        30.31S
PINEDALE       FAIR      34  21  60 N3        30.30F
DUBOIS         FAIR      34  19  55 W8        30.26  WCI  27
LANDER         FAIR      39  27  62 SE5       30.25S
RIVERTON       FAIR      43  25  49 W13       30.27S
CASPER         FAIR      42  28  57 SW15      30.24F
DOUGLAS        FAIR      42  32  67 NW12      30.22F

$$
WYZ021-027>030-104>119-021600-
SOUTHERN WYOMING

CITY           SKY/WX    TMP DP  RH WIND       PRES   REMARKS
EVANSTON       FAIR      38  22  52 E12       30.30R WCI  30
KEMMERER       FAIR      36  25  64 E6        30.31S WCI  31
FORT BRIDGER   SUNNY     36  25  64 SE6       30.34R WCI  31
ROCK SPRINGS   FAIR      34  23  64 VRB3      30.30S
DIXON          FAIR      34  22  61 CALM      30.32F
RAWLINS        FAIR      34  18  52 S7        30.28S WCI  28
SARATOGA       FAIR      34  18  51 E5        30.28F WCI  30
LARAMIE        FAIR      20  14  77 SW5       30.25F WCI  13
CHEYENNE       FAIR      41  27  57 W7        30.23F
TORRINGTON     FAIR      42  30  62 W8        30.21S
PINE BLUFFS    FAIR      41  32  70 W9        30.23F

$$



USA.gov is the U.S. government's official web portal to all federal, state and local government web resources and services.